Flag for Switzerland Weather past 2 weeks in Zürich, Zurich, Switzerland

Now
67 °F

Mild.


Feels Like: 67 °F
Forecast: 51 / 80 °F
Wind: 5 mph from Northeast

Location: Zurich Town / Ville.

Current Time: Jul 31, 2014 at 9:47:05 PM

Latest Report: Jul 31, 2014 at 9:00 PM


Visibility: N/A

Pressure: 29.89 "Hg

Humidity: 73%

Dew point: 58 °F

Location of ZürichLocation

Historic Weather in Zürich — Graph

°F

Zürich temperature yesterday

Maximum temperature yesterday: 63 °F (at 10:00 PM)
Minimum temperature yesterday: 59 °F (at 9:00 AM)
Average temperature yesterday: 61 °F

Past Weeks' High & Low Weather Summary

 TemperatureHumidityPressure
High87 °F (Jul 19, 6:00 PM)99% (Jul 23, 1:00 AM)30.18 "Hg (Jul 23, 1:00 AM)
Low56 °F (Jul 29, 7:00 AM)25% (Jul 18, 3:00 PM)29.72 "Hg (Jul 28, 5:00 PM)
Average66 °F77%29.93 "Hg
* Reported Jul 16 8:00 PM — Jul 31 8:00 PM, Zürich, Weather by CustomWeather, © 2014

Note: Actual official high and low records may vary slightly from our data, if they occured in-between our weather recording intervals... More about our weather records

Advertising

Zürich weather history for previous 24 hours

 ConditionsComfort  
Time TempWeatherWind HumidityBarometerVisibility
8:00 PM
Jul 31
71 °FPassing clouds.3 mph64%29.88 "HgN/A
7:00 PM74 °FMild.6 mph57%29.87 "HgN/A
6:00 PM74 °FMild.7 mph53%29.88 "HgN/A
5:00 PM75 °FMild.5 mph56%29.88 "HgN/A
4:00 PM74 °FMild.6 mph56%29.90 "HgN/A
3:00 PM72 °FMild.7 mph63%29.92 "HgN/A
2:00 PM74 °FMild.3 mph64%29.92 "HgN/A
1:00 PM72 °FMild.6 mph69%29.94 "HgN/A
12:00 PM69 °FMild.6 mph73%29.96 "HgN/A
11:00 AM65 °FMild.6 mph83%29.98 "HgN/A
10:00 AM63 °FMild.3 mph88%29.99 "HgN/A
9:00 AM63 °FMild.2 mph93%30.00 "HgN/A
8:00 AM62 °FOvercast.2 mph96%29.99 "HgN/A
7:00 AM60 °FCool.2 mph96%29.99 "HgN/A
6:00 AM60 °FCool.2 mph97%29.98 "HgN/A
5:00 AM61 °FCool.2 mph94%29.98 "HgN/A
4:00 AM61 °FCool.3 mph95%29.98 "HgN/A
3:00 AM62 °FCool.3 mph95%29.97 "HgN/A
2:00 AM63 °FMild.2 mph95%29.97 "HgN/A
1:00 AM63 °FMild.1 mph96%29.96 "HgN/A
12:00 AM63 °FMild.2 mph96%29.96 "HgN/A
11:00 PM
Jul 30
63 °FMild.2 mph96%29.95 "HgN/A
10:00 PM63 °FMild.1 mph98%29.94 "HgN/A
9:00 PM63 °FMild.2 mph97%29.91 "HgN/A
Weather by CustomWeather, © 2014

See weather overviewHow to use our weather pages